FW5461 Weather Reports


time (UTC)temp
C
wind
direction
speed
KPH
gust
KPH
rain 1hr
cm
rain 24hr
cm
rain mn
cm
humidity
%
barometer
mb
20260506185004 15 360 9.7 19.3 0.08 0.15 0.15 87 1009.0
20260506184514 15 360 6.4 19.3 0.08 0.15 0.15 87 1009.0
20260506184004 15 360 8.0 19.3 0.05 0.13 0.13 86 1008.9
20260506183504 15 360 4.8 25.7 0.05 0.13 0.13 86 1008.9
20260506183004 15 360 12.9 25.7 0.08 0.13 0.13 85 1008.9
20260506182504 15 360 12.9 24.1 0.05 0.10 0.10 85 1009.1
20260506182003 16 360 12.9 20.9 0.08 0.10 0.10 85 1009.0
20260506181503 16 360 9.7 22.5 0.08 0.08 0.08 85 1009.1
20260506181003 16 360 8.0 22.5 0.08 0.08 0.08 84 1009.2
20260506180503 16 360 6.4 19.3 0.08 0.08 0.08 84 1009.0
20260506180003 16 360 11.3 24.1 0.08 0.08 0.08 84 1008.9
20260506175501 16 360 11.3 24.1 0.08 0.08 0.08 84 1008.8
20260506175000 16 360 6.4 19.3 0.08 0.08 0.08 83 1008.9
20260506174601 16 360 9.7 20.9 0.08 0.08 0.08 83 1009.0
20260506174103 17 360 9.7 24.1 0.08 0.08 0.08 82 1009.2
20260506173603 17 360 6.4 24.1 0.08 0.08 0.08 82 1009.1
20260506173100 17 360 8.0 17.7 0.05 0.05 0.05 81 1009.0
20260506172600 17 360 9.7 17.7 0.05 0.05 0.05 80 1009.3
20260506172057 17 360 8.0 19.3 0.03 0.03 0.03 79 1009.6
20260506171607 18 360 9.7 20.9 0.00 0.00 0.00 78 1009.6
20260506171058 18 360 8.0 20.9 0.00 0.00 0.00 76 1009.8
20260506170556 18 360 9.7 20.9 0.00 0.00 0.00 75 1009.9
20260506170058 18 360 9.7 25.7 0.00 0.00 0.00 74 1009.9
20260506165555 19 360 12.9 25.7 0.00 0.00 0.00 72 1009.9
20260506165055 19 360 8.0 22.5 0.00 0.00 0.00 72 1009.8
20260506164555 19 360 12.9 24.1 0.00 0.00 0.00 70 1009.7
20260506164055 19 360 12.9 24.1 0.00 0.00 0.00 69 1009.7
20260506163554 20 360 8.0 22.5 0.00 0.00 0.00 69 1009.7
20260506163057 20 360 8.0 30.6 0.00 0.00 0.00 69 1009.6
20260506162554 20 360 14.5 30.6 0.00 0.00 0.00 67 1009.6
20260506162058 20 360 12.9 22.5 0.00 0.00 0.00 67 1009.6
20260506161554 20 360 6.4 22.5 0.00 0.00 0.00 67 1009.6
20260506161052 20 360 8.0 22.5 0.00 0.00 0.00 68 1009.7
20260506160551 20 360 9.7 20.9 0.00 0.00 0.00 68 1009.7
20260506160100 20 360 8.0 19.3 0.00 0.00 0.00 69 1009.9
20260506155548 19 360 4.8 12.9 0.00 0.00 0.00 70 1010.2
20260506155047 19 360 3.2 9.7 0.00 0.00 0.00 71 1010.2
20260506154546 19 360 3.2 9.7 0.00 0.00 0.00 71 1010.3
20260506154048 19 360 4.8 9.7 0.00 0.00 0.00 71 1010.3
20260506153545 19 360 1.6 8.0 0.00 0.00 0.00 71 1010.4
20260506153044 19 360 3.2 9.7 0.00 0.00 0.00 71 1010.4
20260506152544 18 360 6.4 14.5 0.00 0.00 0.00 72 1010.5
20260506152044 18 360 4.8 14.5 0.00 0.00 0.00 72 1010.6
20260506151543 18 360 4.8 12.9 0.00 0.00 0.00 72 1010.7
20260506151040 18 360 4.8 12.9 0.00 0.00 0.00 73 1010.8
20260506150539 18 360 4.8 12.9 0.00 0.00 0.00 73 1010.8
20260506150038 18 360 4.8 12.9 0.00 0.00 0.00 74 1010.8
20260506145537 18 360 3.2 12.9 0.00 0.00 0.00 74 1010.9
20260506145035 18 360 6.4 17.7 0.00 0.00 0.00 75 1010.9
20260506144548 17 360 8.0 17.7 0.00 0.00 0.00 75 1010.9
20260506144035 17 360 9.7 17.7 0.00 0.00 0.00 75 1010.9
20260506143534 17 360 6.4 16.1 0.00 0.00 0.00 75 1010.9
20260506143035 17 360 6.4 17.7 0.00 0.00 0.00 75 1010.9
20260506142532 17 360 4.8 17.7 0.00 0.00 0.00 76 1011.0
20260506142031 17 360 6.4 14.5 0.00 0.00 0.00 76 1010.9
20260506141530 17 360 8.0 14.5 0.00 0.00 0.00 76 1011.0
20260506141030 17 360 8.0 14.5 0.00 0.00 0.00 76 1010.9
20260506140530 17 360 9.7 20.9 0.00 0.00 0.00 76 1010.9
20260506140033 17 360 9.7 20.9 0.00 0.00 0.00 77 1010.9
20260506135530 17 360 3.2 17.7 0.00 0.00 0.00 77 1011.0
20260506135027 17 360 6.4 17.7 0.00 0.00 0.00 77 1010.8
20260506134528 16 360 8.0 16.1 0.00 0.00 0.00 78 1010.8
20260506134027 16 360 8.0 17.7 0.00 0.00 0.00 78 1010.7
20260506133523 16 360 8.0 20.9 0.00 0.00 0.00 79 1010.7
20260506133029 16 360 11.3 20.9 0.00 0.00 0.00 79 1010.7
20260506132521 16 360 9.7 17.7 0.00 0.00 0.00 79 1010.9
20260506132022 16 360 9.7 19.3 0.00 0.00 0.00 79 1010.8
20260506131522 16 360 8.0 19.3 0.00 0.00 0.00 79 1010.8
20260506131023 16 360 9.7 17.7 0.00 0.00 0.00 79 1010.8
20260506130520 16 360 4.8 16.1 0.00 0.00 0.00 80 1011.0
20260506130019 16 360 6.4 16.1 0.00 0.00 0.00 80 1011.0
20260506125518 16 360 6.4 16.1 0.00 0.00 0.00 80 1011.0
20260506125018 16 360 6.4 16.1 0.00 0.00 0.00 80 1010.8
20260506124521 15 360 1.6 16.1 0.00 0.00 0.00 81 1010.8
20260506124017 15 360 3.2 16.1 0.00 0.00 0.00 81 1011.1
20260506123515 15 360 3.2 9.7 0.00 0.00 0.00 82 1011.3
20260506123015 15 360 1.6 9.7 0.00 0.00 0.00 82 1011.4
20260506122515 15 360 4.8 9.7 0.00 0.00 0.00 82 1011.4
20260506122016 15 360 3.2 6.4 0.00 0.00 0.00 83 1011.4
20260506121513 15 360 0.0 14.5 0.00 0.00 0.00 83 1011.3
20260506121014 15 360 4.8 14.5 0.00 0.00 0.00 83 1011.4
20260506120513 15 360 6.4 12.9 0.00 0.00 0.00 83 1011.4
20260506120013 14 360 0.0 9.7 0.00 0.00 0.00 84 1011.3
20260506115511 14 360 3.2 9.7 0.00 0.00 0.00 84 1011.4
20260506115012 14 360 3.2 8.0 0.00 0.00 0.00 84 1011.5
20260506114529 14 360 1.6 6.4 0.00 0.00 0.00 84 1011.5
20260506114010 14 360 0.0 8.0 0.00 0.00 0.00 84 1011.4
20260506113509 14 360 3.2 8.0 0.00 0.00 0.00 84 1011.6
20260506113009 14 360 0.0 6.4 0.00 0.00 0.00 85 1011.5
20260506112512 13 360 3.2 12.9 0.00 0.00 0.00 85 1011.7
20260506112010 13 360 4.8 12.9 0.00 0.00 0.00 85 1011.5
20260506111508 13 360 0.0 4.8 0.00 0.00 0.00 85 1011.5
20260506111010 13 360 0.0 4.8 0.00 0.00 0.00 86 1011.5
20260506110510 13 360 0.0 4.8 0.00 0.00 0.00 86 1011.4
20260506110008 13 360 0.0 6.4 0.00 0.00 0.00 86 1011.6
20260506105505 13 360 1.6 6.4 0.00 0.00 0.00 86 1011.9
20260506105006 13 360 0.0 6.4 0.00 0.00 0.00 85 1011.8
20260506104504 12 360 0.0 6.4 0.00 0.00 0.00 85 1011.7
20260506104103 12 360 0.0 3.2 0.00 0.00 0.00 85 1011.6
20260506103505 12 360 0.0 1.6 0.00 0.00 0.00 85 1011.9
20260506103001 12 360 0.0 1.6 0.00 0.00 0.00 85 1011.9
20260506102603 12 360 0.0 1.6 0.00 0.00 0.00 85 1011.8
20260506102100 12 360 0.0 1.6 0.00 0.00 0.00 85 1011.7
20260506101600 12 360 0.0 3.2 0.00 0.00 0.00 85 1011.5
20260506101058 12 360 0.0 3.2 0.00 0.00 0.00 85 1011.4
20260506100557 12 360 0.0 4.8 0.00 0.00 0.00 84 1011.3
20260506100111 12 360 1.6 4.8 0.00 0.00 0.00 84 1011.4
20260506095558 12 360 0.0 4.8 0.00 0.00 0.00 84 1011.4
20260506095057 12 360 0.0 3.2 0.00 0.00 0.00 84 1011.3
20260506094554 12 360 0.0 6.4 0.00 0.00 0.00 83 1011.2
20260506094052 12 360 0.0 6.4 0.00 0.00 0.00 83 1011.2
20260506093554 12 360 1.6 4.8 0.00 0.00 0.00 83 1011.4
20260506093055 12 360 0.0 3.2 0.00 0.00 0.00 83 1011.4
20260506092553 13 360 0.0 1.6 0.00 0.00 0.00 83 1011.3
20260506092051 13 360 0.0 3.2 0.00 0.00 0.00 83 1011.3
20260506091554 13 360 0.0 3.2 0.00 0.00 0.00 83 1011.2
20260506091049 13 360 0.0 4.8 0.00 0.00 0.00 83 1011.3
20260506090550 13 360 0.0 6.4 0.00 0.00 0.00 83 1011.3
20260506090050 13 360 1.6 8.0 0.00 0.00 0.00 83 1011.4
20260506085548 13 360 3.2 8.0 0.00 0.00 0.00 82 1011.4
20260506085048 13 360 1.6 6.4 0.00 0.00 0.00 82 1011.4
20260506084548 13 360 0.0 4.8 0.00 0.00 0.00 82 1011.5
20260506084048 13 360 0.0 3.2 0.00 0.00 0.00 82 1011.4
20260506083547 13 360 0.0 4.8 0.00 0.00 0.00 82 1011.4
20260506083048 13 360 0.0 4.8 0.00 0.00 0.00 81 1011.7
20260506082546 13 360 0.0 4.8 0.00 0.00 0.00 81 1011.6
20260506082046 13 360 0.0 3.2 0.00 0.00 0.00 81 1011.7
20260506081548 13 360 0.0 3.2 0.00 0.00 0.00 80 1011.5
20260506081045 13 360 0.0 3.2 0.00 0.00 0.00 80 1011.5
20260506080545 13 360 0.0 1.6 0.00 0.00 0.00 80 1011.5
20260506073041 13 360 0.0 6.4 0.00 0.00 0.00 78 1011.3
20260506072541 13 360 1.6 4.8 0.00 0.00 0.00 77 1011.4
20260506072041 13 360 0.0 4.8 0.00 0.00 0.00 77 1011.4
20260506071539 14 360 0.0 0.0 0.00 0.00 0.00 76 1011.3
20260506071038 14 360 0.0 1.6 0.00 0.00 0.00 76 1011.3
20260506070541 14 360 0.0 1.6 0.00 0.00 0.00 76 1011.3
20260506062037 15 360 0.0 3.2 0.00 0.00 0.00 75 1011.0
20260506061534 15 360 0.0 3.2 0.00 0.00 0.00 74 1011.1
20260506061037 15 360 0.0 3.2 0.00 0.00 0.00 74 1011.2
20260506060532 15 360 0.0 1.6 0.00 0.00 0.00 74 1011.1
20260506051027 15 360 1.6 6.4 0.00 0.00 0.00 72 1011.3
20260506050528 15 360 3.2 6.4 0.00 0.00 0.00 72 1011.3
20260506045026 15 360 0.0 3.2 0.00 0.00 0.00 71 1011.3
20260506044531 15 360 0.0 3.2 0.00 0.00 0.00 71 1011.3
20260506044024 15 360 0.0 0.0 0.00 0.00 0.00 71 1011.4
20260506043524 16 360 0.0 0.0 0.00 0.00 0.00 71 1011.4
20260506043026 16 360 0.0 1.6 0.00 0.00 0.00 70 1011.4
20260506042526 16 360 0.0 1.6 0.00 0.00 0.00 70 1011.3
20260506042024 16 360 0.0 3.2 0.00 0.00 0.00 70 1011.4
20260506041525 16 360 0.0 4.8 0.00 0.00 0.00 69 1011.3
20260506041021 16 360 0.0 4.8 0.00 0.00 0.00 69 1011.4
20260506040524 16 360 1.6 4.8 0.00 0.00 0.00 69 1011.4
20260506040020 16 360 1.6 4.8 0.00 0.00 0.00 68 1011.3
20260506035524 16 360 1.6 8.0 0.00 0.00 0.00 68 1011.4
20260506035019 16 360 1.6 8.0 0.00 0.00 0.00 68 1011.3
20260506034520 16 360 0.0 8.0 0.00 0.00 0.00 67 1011.3
20260506034020 16 360 1.6 8.0 0.00 0.00 0.00 67 1011.5
20260506033518 16 360 1.6 6.4 0.00 0.00 0.00 67 1011.4
20260506033026 16 360 1.6 8.0 0.00 0.00 0.00 66 1011.4
20260506032518 16 360 0.0 8.0 0.00 0.00 0.00 66 1011.4
20260506032018 16 360 1.6 9.7 0.00 0.00 0.00 66 1011.5
20260506031529 17 360 1.6 9.7 0.00 0.00 0.00 66 1011.4
20260506031019 17 360 3.2 12.9 0.00 0.00 0.00 65 1011.4
20260506030523 17 360 4.8 14.5 0.00 0.00 0.00 65 1011.6
20260506030041 17 360 4.8 14.5 0.00 0.00 0.00 65 1011.4
20260506025517 17 360 6.4 12.9 0.00 0.00 0.00 65 1011.5
20260506025019 17 360 3.2 12.9 0.00 0.00 0.00 65 1011.5
20260506024525 17 360 3.2 12.9 0.00 0.00 0.00 65 1011.4
20260506024017 17 360 4.8 9.7 0.00 0.00 0.00 64 1011.5
20260506023517 17 360 4.8 9.7 0.00 0.00 0.00 64 1011.3
20260506023016 17 360 3.2 9.7 0.00 0.00 0.00 64 1011.3
20260506022516 17 360 4.8 12.9 0.00 0.00 0.00 64 1011.3
20260506022016 17 360 6.4 14.5 0.00 0.00 0.00 64 1011.2
20260506021516 17 360 6.4 19.3 0.00 0.00 0.00 64 1011.2
20260506021016 17 360 4.8 19.3 0.00 0.00 0.00 63 1011.2
20260506020522 18 360 9.7 16.1 0.00 0.00 0.00 63 1011.0
20260506020016 18 360 6.4 14.5 0.00 0.00 0.00 63 1011.0
20260506015517 18 360 6.4 14.5 0.00 0.00 0.00 63 1010.9
20260506015015 18 360 4.8 14.5 0.00 0.00 0.00 63 1011.0
20260506014514 18 360 6.4 14.5 0.00 0.00 0.00 62 1011.1
20260506014014 18 360 3.2 12.9 0.00 0.00 0.00 62 1011.0
20260506013514 18 360 3.2 16.1 0.00 0.00 0.00 62 1011.0
20260506013015 18 360 6.4 16.1 0.00 0.00 0.00 61 1010.9
20260506012514 18 360 6.4 19.3 0.00 0.00 0.00 61 1010.8
20260506012014 18 360 8.0 19.3 0.00 0.00 0.00 61 1010.8
20260506011522 19 360 6.4 17.7 0.00 0.00 0.00 60 1010.8
20260506011015 19 360 6.4 16.1 0.00 0.00 0.00 60 1010.6
20260506010514 19 360 9.7 20.9 0.00 0.00 0.00 60 1010.5
20260506010014 19 360 8.0 14.5 0.00 0.00 0.00 60 1010.5
20260506005513 20 360 6.4 16.1 0.00 0.00 0.00 59 1010.4
20260506005012 20 360 8.0 17.7 0.00 0.00 0.00 59 1010.4
20260506004524 20 360 6.4 17.7 0.00 0.00 0.00 59 1010.5
20260506004012 20 360 6.4 12.9 0.00 0.00 0.00 58 1010.4
20260506003512 20 360 4.8 14.5 0.00 0.00 0.00 58 1010.3
20260506003012 20 360 8.0 14.5 0.00 0.00 0.00 57 1010.3
20260506002511 20 360 4.8 12.9 0.00 0.00 0.00 57 1010.2
20260506002014 20 360 4.8 12.9 0.00 0.00 0.00 57 1010.0
20260506001512 20 360 4.8 16.1 0.00 0.00 0.00 57 1009.9
20260506001011 20 360 8.0 17.7 0.00 0.00 0.00 56 1009.9
20260506000513 21 360 9.7 17.7 0.00 0.00 0.00 56 1009.8
20260506000017 21 360 11.3 19.3 0.00 0.00 0.00 56 1009.7
20260505235510 21 360 11.3 19.3 0.00 0.00 0.00 56 1009.6
20260505235011 21 360 8.0 20.9 0.00 0.00 0.00 55 1009.4
20260505234510 21 360 12.9 20.9 0.00 0.00 0.00 55 1009.3
20260505234009 21 360 8.0 25.7 0.00 0.00 0.00 55 1009.3
20260505233512 21 360 9.7 33.8 0.00 0.00 0.00 55 1009.2
20260505233009 21 360 9.7 33.8 0.00 0.00 0.00 54 1009.2
20260505232509 21 360 12.9 33.8 0.00 0.00 0.00 54 1009.1
20260505232009 21 360 12.9 22.5 0.00 0.00 0.00 54 1008.9
20260505231511 22 360 12.9 24.1 0.00 0.00 0.00 53 1008.9
20260505231012 22 360 12.9 24.1 0.00 0.00 0.00 52 1008.9
20260505230509 22 360 12.9 27.4 0.00 0.00 0.00 52 1008.8
20260505230012 22 360 12.9 27.4 0.00 0.00 0.00 51 1008.8
20260505225509 22 360 11.3 24.1 0.00 0.00 0.00 51 1008.8
20260505225011 22 360 8.0 29.0 0.00 0.00 0.00 50 1008.7
20260505224508 23 360 12.9 29.0 0.00 0.00 0.00 50 1008.6
20260505224007 23 122 16.1 33.8 0.00 0.00 0.00 49 1008.5
20260505223507 23 128 17.7 33.8 0.00 0.00 0.00 48 1008.4
20260505223007 23 142 11.3 38.6 0.00 0.00 0.00 48 1008.2
20260505222507 23 158 17.7 38.6 0.00 0.00 0.00 48 1008.2
20260505222107 24 131 16.1 33.8 0.00 0.00 0.00 47 1008.1
20260505221507 24 163 14.5 32.2 0.00 0.00 0.00 47 1008.1
20260505221006 24 173 16.1 41.8 0.00 0.00 0.00 46 1008.1
20260505220510 25 212 20.9 41.8 0.00 0.00 0.00 45 1008.1
20260505220008 25 181 20.9 35.4 0.00 0.00 0.00 45 1008.0
20260505215505 25 173 17.7 41.8 0.00 0.00 0.00 45 1008.1
20260505215005 25 150 19.3 41.8 0.00 0.00 0.00 44 1007.9
20260505214505 25 157 14.5 35.4 0.00 0.00 0.00 44 1007.9
20260505214005 25 223 20.9 37.0 0.00 0.00 0.00 44 1007.8
20260505213508 25 173 16.1 35.4 0.00 0.00 0.00 44 1007.8
20260505213123 25 168 17.7 40.2 0.00 0.00 0.00 44 1007.8
20260505212504 25 159 16.1 38.6 0.00 0.00 0.00 45 1007.7
20260505212005 25 148 20.9 40.2 0.00 0.00 0.00 44 1007.7
20260505211503 25 164 16.1 35.4 0.00 0.00 0.00 44 1007.7
20260505211003 25 138 20.9 35.4 0.00 0.00 0.00 44 1007.8
20260505210502 26 169 14.5 38.6 0.00 0.00 0.00 44 1007.7
20260505210002 26 167 22.5 38.6 0.00 0.00 0.00 43 1007.8
20260505205502 26 158 17.7 38.6 0.00 0.00 0.00 43 1007.6
20260505205002 26 134 17.7 33.8 0.00 0.00 0.00 42 1007.8
20260505204502 26 181 17.7 37.0 0.00 0.00 0.00 42 1007.7
20260505204001 26 169 17.7 37.0 0.00 0.00 0.00 40 1007.5
20260505203503 27 162 16.1 32.2 0.00 0.00 0.00 40 1007.5
20260505203006 27 173 16.1 33.8 0.00 0.00 0.00 38 1007.5
20260505202501 27 190 19.3 35.4 0.00 0.00 0.00 37 1007.6
20260505202002 27 143 11.3 37.0 0.00 0.00 0.00 38 1007.6
20260505201601 27 360 24.1 37.0 0.00 0.00 0.00 38 1007.6
20260505201102 27 360 16.1 35.4 0.00 0.00 0.00 38 1007.7
20260505200600 27 360 22.5 35.4 0.00 0.00 0.00 38 1007.7
20260505200100 27 207 16.1 35.4 0.00 0.00 0.00 39 1007.8
20260505195602 26 183 19.3 37.0 0.00 0.00 0.00 41 1007.7
20260505195102 26 182 12.9 37.0 0.00 0.00 0.00 43 1007.8
20260505194601 26 184 14.5 38.6 0.00 0.00 0.00 43 1007.8
20260505194100 26 147 14.5 46.7 0.00 0.00 0.00 42 1007.8
20260505193559 26 360 25.7 46.7 0.00 0.00 0.00 41 1007.6
20260505193125 27 119 12.9 41.8 0.00 0.00 0.00 42 1007.7
20260505192557 26 160 19.3 45.1 0.00 0.00 0.00 41 1007.9
20260505192057 27 178 20.9 45.1 0.00 0.00 0.00 40 1008.0
20260505191605 27 192 14.5 40.2 0.00 0.00 0.00 39 1007.9
20260505191057 27 131 16.1 40.2 0.00 0.00 0.00 38 1007.9
20260505190555 27 43 12.9 38.6 0.00 0.00 0.00 40 1008.0
20260505190055 27 182 20.9 38.6 0.00 0.00 0.00 39 1008.1
20260505185554 28 133 12.9 33.8 0.00 0.00 0.00 37 1008.2